SVA1428 OEJN-OEMA

Flight info

Callsign SVA1428
Flight time 0h 44m
Altitude 21000
Route DATAP A424 RULEB/N0347F200 A424 DEGVU
Aircraft A320/M-SDE3FGHIRWY/LB1

Departure

Time 2026-05-06 13:22
Airport King Abdulaziz International Airport (OEJN)

Arrival

Time 2026-05-06 14:06
Airport Prince Mohammad Bin Abdulaziz Airport (OEMA)
Time Latitude Longitude Altitude Speed Heading
2026-05-06 13:06 21.66688 39.17225 35 ft 0 kts 250°
2026-05-06 13:12 21.66691 39.17233 35 ft 4 kts 250°
2026-05-06 13:13 21.66700 39.17260 31 ft 4 kts 250°
2026-05-06 13:13 21.66709 39.17288 34 ft 4 kts 250°
2026-05-06 13:13 21.66717 39.17309 32 ft 4 kts 238°
2026-05-06 13:13 21.66734 39.17326 32 ft 4 kts 182°
2026-05-06 13:14 21.66757 39.17320 33 ft 4 kts 160°
2026-05-06 13:14 21.66771 39.17315 32 ft 0 kts 160°
2026-05-06 13:17 21.66769 39.17316 32 ft 2 kts 160°
2026-05-06 13:17 21.66732 39.17330 31 ft 7 kts 160°
2026-05-06 13:17 21.66679 39.17350 35 ft 9 kts 160°
2026-05-06 13:18 21.66606 39.17378 35 ft 12 kts 160°
2026-05-06 13:18 21.66521 39.17429 36 ft 17 kts 134°
2026-05-06 13:18 21.66463 39.17558 35 ft 19 kts 105°
2026-05-06 13:18 21.66440 39.17692 36 ft 17 kts 94°
2026-05-06 13:19 21.66478 39.17778 36 ft 14 kts 354°
2026-05-06 13:19 21.66574 39.17786 34 ft 15 kts 47°
2026-05-06 13:19 21.66616 39.17892 36 ft 15 kts 70°
2026-05-06 13:19 21.66652 39.17988 37 ft 13 kts 64°
2026-05-06 13:20 21.66710 39.18027 37 ft 11 kts 323°
2026-05-06 13:20 21.66738 39.18011 37 ft 0 kts 341°
2026-05-06 13:21 21.66746 39.18008 37 ft 11 kts 341°
2026-05-06 13:21 21.67067 39.17882 35 ft 85 kts 340°
2026-05-06 13:21 21.67811 39.17591 34 ft 140 kts 340°
2026-05-06 13:21 21.68807 39.17204 472 ft 153 kts 335°
2026-05-06 13:22 21.69798 39.16808 1274 ft 151 kts 339°
2026-05-06 13:22 21.70866 39.16497 1699 ft 170 kts 347°
2026-05-06 13:22 21.72100 39.16244 1968 ft 191 kts 348°
2026-05-06 13:22 21.73462 39.16024 2321 ft 205 kts 357°
2026-05-06 13:23 21.74873 39.16496 2649 ft 233 kts 33°
2026-05-06 13:23 21.76202 39.17661 3067 ft 256 kts 36°
2026-05-06 13:23 21.77636 39.18860 3744 ft 265 kts 35°
2026-05-06 13:23 21.79148 39.20044 4499 ft 271 kts 34°
2026-05-06 13:24 21.80720 39.21219 5235 ft 277 kts 34°
2026-05-06 13:24 21.82337 39.22388 6015 ft 283 kts 34°
2026-05-06 13:24 21.83992 39.23565 6767 ft 288 kts 34°
2026-05-06 13:24 21.85665 39.24746 7457 ft 295 kts 34°
2026-05-06 13:25 21.87399 39.25967 8194 ft 300 kts 33°
2026-05-06 13:25 21.89170 39.27213 8931 ft 307 kts 34°
2026-05-06 13:25 21.90985 39.28490 9614 ft 315 kts 34°
2026-05-06 13:25 21.92831 39.29788 10264 ft 324 kts 33°
2026-05-06 13:26 21.94789 39.31155 10526 ft 347 kts 33°
2026-05-06 13:26 21.96882 39.32564 11016 ft 359 kts 32°
2026-05-06 13:26 21.99031 39.33977 11725 ft 363 kts 31°
2026-05-06 13:26 22.01174 39.35377 12419 ft 367 kts 31°
2026-05-06 13:27 22.03372 39.36812 13151 ft 371 kts 31°
2026-05-06 13:27 22.05588 39.38265 13852 ft 374 kts 31°
2026-05-06 13:27 22.07826 39.39743 14470 ft 379 kts 31°
2026-05-06 13:27 22.10080 39.41238 15103 ft 383 kts 31°
2026-05-06 13:28 22.12362 39.42755 15731 ft 387 kts 31°
2026-05-06 13:28 22.14670 39.44285 16346 ft 391 kts 31°
2026-05-06 13:28 22.17002 39.45829 16962 ft 395 kts 31°
2026-05-06 13:28 22.19329 39.47372 17577 ft 399 kts 31°
2026-05-06 13:29 22.21709 39.48951 18216 ft 403 kts 31°
2026-05-06 13:29 22.24115 39.50549 18750 ft 407 kts 31°
2026-05-06 13:29 22.26543 39.52162 19268 ft 411 kts 31°
2026-05-06 13:29 22.29062 39.53652 19807 ft 414 kts 22°
2026-05-06 13:30 22.31797 39.54626 20336 ft 415 kts 10°
2026-05-06 13:30 22.34657 39.55046 20765 ft 414 kts 359°
2026-05-06 13:30 22.37518 39.54891 20878 ft 407 kts 347°
2026-05-06 13:30 22.40199 39.54309 20902 ft 390 kts 344°
2026-05-06 13:31 22.42864 39.53705 20901 ft 384 kts 344°
2026-05-06 13:31 22.45439 39.53127 20898 ft 382 kts 344°
2026-05-06 13:31 22.48043 39.52547 20904 ft 382 kts 344°
2026-05-06 13:31 22.50647 39.51968 20904 ft 381 kts 344°
2026-05-06 13:32 22.53255 39.51392 20905 ft 381 kts 344°
2026-05-06 13:32 22.55852 39.50820 20904 ft 381 kts 344°
2026-05-06 13:32 22.58456 39.50246 20910 ft 382 kts 344°
2026-05-06 13:32 22.61065 39.49668 20910 ft 381 kts 344°
2026-05-06 13:33 22.63687 39.49188 20910 ft 385 kts 352°
2026-05-06 13:33 22.66379 39.49233 20905 ft 389 kts
2026-05-06 13:33 22.68153 39.49595 20910 ft 392 kts 13°
2026-05-06 13:33 22.71576 39.50874 20909 ft 393 kts 18°
2026-05-06 13:34 22.74158 39.51883 20904 ft 394 kts 18°
2026-05-06 13:34 22.76738 39.52881 20908 ft 394 kts 18°
2026-05-06 13:34 22.78484 39.53552 20908 ft 394 kts 18°
2026-05-06 13:34 22.81065 39.54544 20910 ft 394 kts 17°
2026-05-06 13:35 22.83616 39.55525 20910 ft 394 kts 18°
2026-05-06 13:35 22.86200 39.56524 20927 ft 394 kts 18°
2026-05-06 13:35 22.88788 39.57527 20924 ft 395 kts 18°
2026-05-06 13:35 22.91372 39.58531 20935 ft 395 kts 18°
2026-05-06 13:36 22.93960 39.59537 20940 ft 395 kts 18°
2026-05-06 13:36 22.96550 39.60546 20941 ft 395 kts 18°
2026-05-06 13:36 22.99141 39.61554 20941 ft 395 kts 18°
2026-05-06 13:36 23.01774 39.62372 20943 ft 393 kts
2026-05-06 13:37 23.04484 39.62680 20948 ft 390 kts 359°
2026-05-06 13:37 23.07197 39.62810 20950 ft 390 kts 359°
2026-05-06 13:37 23.09876 39.62946 20957 ft 390 kts 359°
2026-05-06 13:37 23.12592 39.63087 20955 ft 390 kts 359°
2026-05-06 13:38 23.15312 39.63231 20960 ft 390 kts 359°
2026-05-06 13:38 23.18026 39.63375 20960 ft 391 kts 359°
2026-05-06 13:38 23.20741 39.63518 20959 ft 391 kts 359°
2026-05-06 13:38 23.23458 39.63659 20963 ft 391 kts 359°
2026-05-06 13:39 23.26173 39.63801 20954 ft 390 kts 359°
2026-05-06 13:39 23.28893 39.63944 20956 ft 390 kts 359°
2026-05-06 13:39 23.31572 39.64086 20954 ft 390 kts 359°
2026-05-06 13:39 23.34275 39.64229 20969 ft 390 kts 359°
2026-05-06 13:40 23.36992 39.64369 20962 ft 390 kts 359°
2026-05-06 13:40 23.39705 39.64510 20958 ft 390 kts 359°
2026-05-06 13:40 23.42414 39.64652 20954 ft 390 kts 359°
2026-05-06 13:40 23.45126 39.64794 20953 ft 390 kts 359°
2026-05-06 13:41 23.47838 39.64934 20958 ft 391 kts 359°
2026-05-06 13:41 23.50559 39.65075 20959 ft 391 kts 359°
2026-05-06 13:41 23.53277 39.65217 20961 ft 391 kts 359°
2026-05-06 13:41 23.55977 39.65360 20904 ft 383 kts 359°
2026-05-06 13:42 23.58619 39.65501 20618 ft 377 kts 359°
2026-05-06 13:42 23.61223 39.65636 20250 ft 374 kts 360°
2026-05-06 13:42 23.63820 39.65769 19988 ft 372 kts 359°
2026-05-06 13:42 23.66378 39.65898 19954 ft 372 kts 359°
2026-05-06 13:43 23.68970 39.66029 19962 ft 373 kts 360°
2026-05-06 13:43 23.71547 39.66400 19961 ft 376 kts 12°
2026-05-06 13:43 23.74027 39.67324 19977 ft 378 kts 20°
2026-05-06 13:43 23.76473 39.68386 19975 ft 378 kts 20°
2026-05-06 13:44 23.78922 39.69443 19977 ft 378 kts 20°
2026-05-06 13:44 23.81367 39.70493 19973 ft 378 kts 20°
2026-05-06 13:44 23.83811 39.71541 19969 ft 378 kts 20°
2026-05-06 13:44 23.86258 39.72591 19969 ft 378 kts 20°
2026-05-06 13:45 23.88709 39.73639 19972 ft 378 kts 20°
2026-05-06 13:45 23.93577 39.75724 19967 ft 378 kts 20°
2026-05-06 13:45 23.96027 39.76778 19978 ft 378 kts 20°
2026-05-06 13:46 23.98476 39.77832 19970 ft 378 kts 20°
2026-05-06 13:46 24.00922 39.78888 19969 ft 378 kts 20°
2026-05-06 13:46 24.03367 39.79945 19975 ft 378 kts 20°
2026-05-06 13:46 24.05816 39.81002 19964 ft 378 kts 20°
2026-05-06 13:47 24.08264 39.82058 19962 ft 378 kts 20°
2026-05-06 13:47 24.10711 39.83115 19961 ft 379 kts 20°
2026-05-06 13:47 24.13171 39.84179 19962 ft 379 kts 20°
2026-05-06 13:47 24.15587 39.85225 19958 ft 379 kts 20°
2026-05-06 13:48 24.18039 39.86284 19958 ft 379 kts 20°
2026-05-06 13:48 24.20492 39.87338 19958 ft 376 kts 18°
2026-05-06 13:48 24.22965 39.88054 19954 ft 358 kts
2026-05-06 13:48 24.25396 39.88199 19819 ft 345 kts 352°
2026-05-06 13:49 24.27734 39.87841 19530 ft 337 kts 343°
2026-05-06 13:49 24.30031 39.87352 19221 ft 335 kts 344°
2026-05-06 13:49 24.32319 39.86865 18911 ft 334 kts 344°
2026-05-06 13:49 24.34548 39.86392 18606 ft 332 kts 344°
2026-05-06 13:50 24.36787 39.85919 18302 ft 331 kts 344°
2026-05-06 13:50 24.39048 39.85443 17983 ft 329 kts 345°
2026-05-06 13:50 24.41297 39.84972 17657 ft 328 kts 345°
2026-05-06 13:50 24.43535 39.84507 17343 ft 326 kts 345°
2026-05-06 13:51 24.45727 39.84051 17059 ft 324 kts 345°
2026-05-06 13:51 24.47940 39.83588 16769 ft 322 kts 345°
2026-05-06 13:51 24.50112 39.83125 16499 ft 320 kts 345°
2026-05-06 13:51 24.52301 39.82653 16227 ft 319 kts 344°
2026-05-06 13:52 24.54467 39.82186 16033 ft 314 kts 345°
2026-05-06 13:52 24.56611 39.81723 15782 ft 312 kts 345°
2026-05-06 13:52 24.58725 39.81269 15546 ft 305 kts 345°
2026-05-06 13:52 24.60780 39.80833 15307 ft 296 kts 345°
2026-05-06 13:53 24.62774 39.80411 15098 ft 288 kts 345°
2026-05-06 13:53 24.64719 39.80000 14857 ft 281 kts 344°
2026-05-06 13:53 24.66618 39.79597 14622 ft 275 kts 344°
2026-05-06 13:53 24.68491 39.79197 14392 ft 272 kts 344°
2026-05-06 13:54 24.70327 39.78806 14163 ft 271 kts 344°
2026-05-06 13:54 24.72174 39.78414 13937 ft 271 kts 344°
2026-05-06 13:54 24.74022 39.78022 13702 ft 270 kts 344°
2026-05-06 13:54 24.75869 39.77630 13347 ft 272 kts 344°
2026-05-06 13:55 24.77732 39.77231 13020 ft 271 kts 344°
2026-05-06 13:55 24.79596 39.76832 12656 ft 274 kts 344°
2026-05-06 13:55 24.81480 39.76430 12271 ft 277 kts 344°
2026-05-06 13:55 24.83385 39.76022 11894 ft 280 kts 344°
2026-05-06 13:56 24.85284 39.75615 11475 ft 284 kts 345°
2026-05-06 13:56 24.87238 39.75197 11055 ft 287 kts 345°
2026-05-06 13:56 24.89192 39.74781 10659 ft 283 kts 344°
2026-05-06 13:56 24.90977 39.74045 10214 ft 267 kts 318°
2026-05-06 13:57 24.92104 39.72554 9816 ft 249 kts 289°
2026-05-06 13:57 24.92392 39.70740 9411 ft 236 kts 262°
2026-05-06 13:57 24.92081 39.68996 9038 ft 229 kts 256°
2026-05-06 13:57 24.91749 39.67327 8753 ft 220 kts 256°
2026-05-06 13:58 24.91429 39.65710 8713 ft 215 kts 255°
2026-05-06 13:58 24.90821 39.64239 8610 ft 212 kts 224°
2026-05-06 13:58 24.89492 39.63563 8387 ft 219 kts 186°
2026-05-06 13:58 24.87960 39.63814 7883 ft 222 kts 172°
2026-05-06 13:59 24.86505 39.64173 7548 ft 210 kts 173°
2026-05-06 13:59 24.85095 39.64485 7283 ft 203 kts 174°
2026-05-06 13:59 24.83725 39.64778 7036 ft 199 kts 174°
2026-05-06 13:59 24.82376 39.65065 6780 ft 196 kts 174°
2026-05-06 14:00 24.81038 39.65349 6559 ft 196 kts 175°
2026-05-06 14:00 24.79714 39.65632 6325 ft 194 kts 175°
2026-05-06 14:00 24.78404 39.65912 6072 ft 190 kts 175°
2026-05-06 14:00 24.77129 39.66185 5827 ft 184 kts 176°
2026-05-06 14:01 24.75884 39.66450 5593 ft 181 kts 177°
2026-05-06 14:01 24.74669 39.66710 5390 ft 171 kts 177°
2026-05-06 14:01 24.73555 39.66949 5169 ft 161 kts 179°
2026-05-06 14:01 24.72485 39.67177 4972 ft 153 kts 178°
2026-05-06 14:02 24.71453 39.67395 4790 ft 150 kts 178°
2026-05-06 14:02 24.70434 39.67611 4594 ft 149 kts 179°
2026-05-06 14:02 24.69417 39.67827 4413 ft 149 kts 178°
2026-05-06 14:02 24.68404 39.68042 4225 ft 148 kts 176°
2026-05-06 14:03 24.67396 39.68257 4041 ft 147 kts 177°
2026-05-06 14:03 24.66406 39.68467 3854 ft 146 kts 176°
2026-05-06 14:03 24.65406 39.68680 3671 ft 146 kts 177°
2026-05-06 14:03 24.64397 39.68894 3500 ft 147 kts 179°
2026-05-06 14:04 24.63397 39.69107 3316 ft 146 kts 179°
2026-05-06 14:04 24.62412 39.69317 3140 ft 145 kts 179°
2026-05-06 14:04 24.61404 39.69530 2942 ft 149 kts 175°
2026-05-06 14:04 24.60395 39.69745 2695 ft 148 kts 174°
2026-05-06 14:05 24.59391 39.69963 2474 ft 148 kts 173°
2026-05-06 14:05 24.58369 39.70179 2288 ft 154 kts 175°
2026-05-06 14:05 24.57336 39.70400 2128 ft 155 kts 174°
2026-05-06 14:05 24.56382 39.70600 2115 ft 118 kts 169°
2026-05-06 14:06 24.55744 39.70737 2109 ft 68 kts 169°
2026-05-06 14:06 24.55348 39.70849 2110 ft 50 kts 150°
2026-05-06 14:06 24.55220 39.70961 2109 ft 14 kts 126°
2026-05-06 14:06 24.55212 39.71004 2108 ft 2 kts 84°
2026-05-06 14:07 24.55214 39.71024 2107 ft 3 kts 81°
2026-05-06 14:07 24.55219 39.71050 2107 ft 4 kts 80°
2026-05-06 14:07 24.55224 39.71080 2106 ft 5 kts 79°
2026-05-06 14:07 24.55231 39.71122 2106 ft 6 kts 79°
2026-05-06 14:08 24.55238 39.71166 2108 ft 6 kts 79°
2026-05-06 14:08 24.55251 39.71204 2105 ft 6 kts 52°
2026-05-06 14:08 24.55304 39.71215 2105 ft 8 kts 354°
2026-05-06 14:08 24.55356 39.71206 2105 ft 7 kts 353°
2026-05-06 14:09 24.55379 39.71236 2105 ft 4 kts 78°
2026-05-06 14:09 24.55384 39.71265 2105 ft 4 kts 80°
2026-05-06 14:09 24.55389 39.71296 2105 ft 0 kts 78°
2026-05-06 14:09 24.55390 39.71299 2105 ft 0 kts 78°